TimeEDT,TemperatureF,Dew PointF,Humidity,Sea Level PressureIn,VisibilityMPH,Wind Direction,Wind SpeedMPH,Gust SpeedMPH,PrecipitationIn,Events,Conditions,WindDirDegrees,DateUTC
12:53 AM,43.0,41.0,93,30.41,8.0,Calm,Calm,-,N/A,,Clear,0,2013-04-27 04:53:00
1:53 AM,42.1,41.0,96,30.41,8.0,Calm,Calm,-,N/A,,Clear,0,2013-04-27 05:53:00
2:36 AM,41.0,39.2,93,30.41,7.0,Calm,Calm,-,N/A,,Scattered Clouds,0,2013-04-27 06:36:00
2:53 AM,39.9,39.0,97,30.41,6.0,Calm,Calm,-,N/A,,Partly Cloudy,0,2013-04-27 06:53:00
3:53 AM,39.9,39.0,97,30.40,7.0,NE,3.5,-,N/A,,Clear,50,2013-04-27 07:53:00
4:53 AM,39.0,37.9,96,30.40,7.0,NE,4.6,-,N/A,,Clear,40,2013-04-27 08:53:00
5:53 AM,37.0,37.0,100,30.40,5.0,North,3.5,-,N/A,,Clear,10,2013-04-27 09:53:00
6:53 AM,41.0,39.9,96,30.41,4.0,Calm,Calm,-,N/A,,Clear,0,2013-04-27 10:53:00
7:53 AM,45.0,43.0,93,30.41,7.0,NNE,4.6,-,N/A,,Clear,30,2013-04-27 11:53:00
8:53 AM,50.0,44.1,80,30.42,10.0,Calm,Calm,-,N/A,,Clear,0,2013-04-27 12:53:00
9:53 AM,51.1,45.0,80,30.41,10.0,SSE,9.2,-,N/A,,Clear,150,2013-04-27 13:53:00
10:53 AM,52.0,45.0,77,30.42,10.0,SSE,5.8,-,N/A,,Clear,150,2013-04-27 14:53:00
11:53 AM,53.1,43.0,69,30.41,10.0,SSE,12.7,-,N/A,,Clear,150,2013-04-27 15:53:00
12:53 PM,54.0,45.0,72,30.40,10.0,SSE,11.5,-,N/A,,Clear,160,2013-04-27 16:53:00
1:53 PM,55.0,44.1,67,30.38,10.0,SE,11.5,-,N/A,,Clear,140,2013-04-27 17:53:00
2:53 PM,54.0,44.1,69,30.38,10.0,ESE,9.2,-,N/A,,Clear,120,2013-04-27 18:53:00
3:53 PM,53.1,42.1,66,30.36,10.0,SE,10.4,-,N/A,,Clear,130,2013-04-27 19:53:00
4:53 PM,52.0,41.0,66,30.35,10.0,SE,9.2,-,N/A,,Clear,140,2013-04-27 20:53:00
5:53 PM,52.0,39.0,61,30.35,10.0,SSE,8.1,-,N/A,,Clear,160,2013-04-27 21:53:00
6:53 PM,50.0,39.0,66,30.35,10.0,SSE,5.8,-,N/A,,Clear,150,2013-04-27 22:53:00
7:53 PM,48.0,39.9,74,30.34,10.0,SE,4.6,-,N/A,,Clear,140,2013-04-27 23:53:00
8:53 PM,46.9,41.0,80,30.35,10.0,SE,3.5,-,N/A,,Clear,140,2013-04-28 00:53:00
9:53 PM,46.9,41.0,80,30.36,10.0,Calm,Calm,-,N/A,,Clear,0,2013-04-28 01:53:00
10:53 PM,42.1,39.0,89,30.36,10.0,Calm,Calm,-,N/A,,Clear,0,2013-04-28 02:53:00
11:53 PM,41.0,39.0,93,30.35,10.0,Calm,Calm,-,N/A,,Scattered Clouds,0,2013-04-28 03:53:00